When you browse on this site, cookies collect data to enhance your experience and personalize the content and advertising you see.
Visit our Privacy Policy to learn more. By continuing to use the site, you agree to this use of cookies and data.

Previsão horária em Pazardjico

Hoje, 16 Julho, Quinta-feira

Tempo Temperatura Precipitação Vento Pressão Humidade
00:00 +21°C° 0 mm 1 m/s 742 mmHg 69%
01:00 +20°C° 0 mm 1 m/s 742 mmHg 71%
02:00 +19°C° 0 mm 1 m/s 742 mmHg 73%
03:00 +19°C° 0 mm 1 m/s 741 mmHg 75%
04:00 +17°C° 0 mm 0 m/s 741 mmHg 76%
05:00 +16°C° 0 mm 0 m/s 741 mmHg 78%
06:00 +18°C° 0.2 mm 0 m/s 741 mmHg 75%
07:00 +19°C° 0.2 mm 0 m/s 741 mmHg 71%
08:00 +22°C° 0.2 mm 1 m/s 742 mmHg 68%
09:00 +24°C° 0.3 mm 1 m/s 741 mmHg 64%
10:00 +25°C° 0.3 mm 1 m/s 741 mmHg 60%
11:00 +27°C° 0.3 mm 1 m/s 741 mmHg 56%
12:00 +28°C° 0.6 mm 1 m/s 741 mmHg 53%
13:00 +29°C° 0.6 mm 1 m/s 741 mmHg 51%
14:00 +30°C° 0.6 mm 1 m/s 740 mmHg 48%
15:00 +29°C° 0.5 mm 1 m/s 740 mmHg 50%
16:00 +29°C° 0.5 mm 1 m/s 740 mmHg 52%
17:00 +28°C° 0.5 mm 1 m/s 739 mmHg 53%
18:00 +27°C° 0.2 mm 1 m/s 739 mmHg 59%
19:00 +25°C° 0.2 mm 1 m/s 740 mmHg 64%
20:00 +23°C° 0.2 mm 1 m/s 740 mmHg 69%
21:00 +22°C° 0.1 mm 1 m/s 740 mmHg 72%
22:00 +22°C° 0.1 mm 1 m/s 740 mmHg 74%
23:00 +21°C° 0.1 mm 1 m/s 740 mmHg 76%

Amanhã, 17 Julho, Sexta-feira

Tempo Temperatura Precipitação Vento Pressão Humidade
00:00 +20°C° 0 mm 1 m/s 740 mmHg 78%
01:00 +20°C° 0 mm 1 m/s 740 mmHg 79%
02:00 +19°C° 0 mm 1 m/s 740 mmHg 81%
03:00 +19°C° 0 mm 1 m/s 740 mmHg 82%
04:00 +19°C° 0 mm 1 m/s 740 mmHg 83%
05:00 +18°C° 0 mm 1 m/s 740 mmHg 84%
06:00 +20°C° 0 mm 1 m/s 740 mmHg 77%
07:00 +22°C° 0 mm 1 m/s 740 mmHg 71%
08:00 +24°C° 0 mm 1 m/s 741 mmHg 65%
09:00 +26°C° 0 mm 1 m/s 741 mmHg 60%
10:00 +28°C° 0 mm 1 m/s 740 mmHg 54%
11:00 +29°C° 0 mm 1 m/s 740 mmHg 49%
12:00 +30°C° 0.2 mm 1 m/s 740 mmHg 46%
13:00 +31°C° 0.2 mm 1 m/s 740 mmHg 44%
14:00 +31°C° 0.2 mm 2 m/s 739 mmHg 42%
15:00 +31°C° 0.3 mm 2 m/s 739 mmHg 43%
16:00 +31°C° 0.3 mm 2 m/s 739 mmHg 44%
17:00 +30°C° 0.3 mm 2 m/s 738 mmHg 46%
18:00 +28°C° 0.1 mm 2 m/s 738 mmHg 52%
19:00 +27°C° 0.1 mm 2 m/s 738 mmHg 58%
20:00 +25°C° 0.1 mm 2 m/s 738 mmHg 64%
21:00 +24°C° 0 mm 2 m/s 739 mmHg 66%
22:00 +23°C° 0 mm 2 m/s 739 mmHg 68%
23:00 +21°C° 0 mm 2 m/s 739 mmHg 70%

Depois de amanhã, 18 Julho, Sábado

Tempo Temperatura Precipitação Vento Pressão Humidade
00:00 +20°C° 0 mm 2 m/s 739 mmHg 72%
01:00 +20°C° 0 mm 2 m/s 740 mmHg 73%
02:00 +20°C° 0 mm 1 m/s 740 mmHg 74%
03:00 +20°C° 0 mm 1 m/s 740 mmHg 76%
04:00 +19°C° 0 mm 1 m/s 740 mmHg 77%
05:00 +17°C° 0 mm 0 m/s 739 mmHg 78%
06:00 +20°C° 0 mm 1 m/s 740 mmHg 73%
07:00 +22°C° 0 mm 1 m/s 740 mmHg 67%
08:00 +24°C° 0 mm 1 m/s 740 mmHg 61%
09:00 +26°C° 0.1 mm 2 m/s 740 mmHg 56%
10:00 +27°C° 0.1 mm 2 m/s 740 mmHg 51%
11:00 +28°C° 0.1 mm 3 m/s 740 mmHg 46%
12:00 +29°C° 0.1 mm 3 m/s 739 mmHg 43%
13:00 +30°C° 0.1 mm 3 m/s 739 mmHg 40%
14:00 +31°C° 0.1 mm 3 m/s 739 mmHg 38%
15:00 +30°C° 0.2 mm 3 m/s 739 mmHg 41%
16:00 +29°C° 0.2 mm 2 m/s 738 mmHg 45%
17:00 +29°C° 0.2 mm 2 m/s 738 mmHg 49%
18:00 +27°C° 0.3 mm 2 m/s 738 mmHg 55%
19:00 +26°C° 0.3 mm 2 m/s 739 mmHg 62%
20:00 +24°C° 0.3 mm 2 m/s 739 mmHg 68%
21:00 +23°C° 1.9 mm 2 m/s 739 mmHg 76%
22:00 +21°C° 1.9 mm 2 m/s 740 mmHg 84%
23:00 +21°C° 1.9 mm 1 m/s 740 mmHg 92%

19 Julho, Domingo

Tempo Temperatura Precipitação Vento Pressão Humidade
00:00 +20°C° 0.2 mm 1 m/s 740 mmHg 92%
01:00 +19°C° 0.2 mm 1 m/s 740 mmHg 93%
02:00 +19°C° 0.2 mm 1 m/s 740 mmHg 93%
03:00 +19°C° 0 mm 1 m/s 740 mmHg 93%
04:00 +19°C° 0 mm 1 m/s 740 mmHg 93%
05:00 +18°C° 0 mm 1 m/s 740 mmHg 92%
06:00 +19°C° 0 mm 2 m/s 741 mmHg 87%
07:00 +20°C° 0 mm 2 m/s 741 mmHg 82%
08:00 +21°C° 0 mm 2 m/s 741 mmHg 78%
09:00 +24°C° 0 mm 2 m/s 741 mmHg 70%
10:00 +26°C° 0 mm 1 m/s 741 mmHg 62%
11:00 +28°C° 0 mm 1 m/s 741 mmHg 54%
12:00 +29°C° 0 mm 1 m/s 741 mmHg 51%
13:00 +30°C° 0 mm 1 m/s 741 mmHg 48%
14:00 +30°C° 0 mm 1 m/s 740 mmHg 46%
15:00 +30°C° 0.1 mm 1 m/s 740 mmHg 47%
16:00 +30°C° 0.1 mm 2 m/s 740 mmHg 49%
17:00 +30°C° 0.1 mm 2 m/s 740 mmHg 50%
18:00 +28°C° 0.1 mm 2 m/s 740 mmHg 56%
19:00 +26°C° 0.1 mm 1 m/s 740 mmHg 63%
20:00 +25°C° 0.1 mm 1 m/s 740 mmHg 69%
21:00 +24°C° 0 mm 1 m/s 740 mmHg 71%
22:00 +23°C° 0 mm 1 m/s 740 mmHg 73%
23:00 +22°C° 0 mm 1 m/s 741 mmHg 75%

20 Julho, Segunda-feira

Tempo Temperatura Precipitação Vento Pressão Humidade
00:00 +22°C° 0.2 mm 1 m/s 741 mmHg 78%
01:00 +21°C° 0.2 mm 1 m/s 741 mmHg 81%
02:00 +20°C° 0.2 mm 1 m/s 740 mmHg 84%
03:00 +20°C° 0.1 mm 1 m/s 740 mmHg 84%
04:00 +20°C° 0.1 mm 1 m/s 740 mmHg 85%
05:00 +19°C° 0.1 mm 1 m/s 740 mmHg 85%
06:00 +21°C° 0 mm 1 m/s 740 mmHg 79%
07:00 +23°C° 0 mm 1 m/s 741 mmHg 73%
08:00 +25°C° 0 mm 1 m/s 741 mmHg 68%
09:00 +26°C° 0.1 mm 1 m/s 741 mmHg 61%
10:00 +28°C° 0.1 mm 1 m/s 741 mmHg 54%
11:00 +30°C° 0.1 mm 2 m/s 741 mmHg 46%
12:00 +30°C° 0.1 mm 2 m/s 741 mmHg 45%
13:00 +30°C° 0.1 mm 2 m/s 740 mmHg 44%
14:00 +31°C° 0.1 mm 3 m/s 740 mmHg 43%
15:00 +30°C° 0 mm 3 m/s 740 mmHg 44%
16:00 +30°C° 0 mm 3 m/s 740 mmHg 44%
17:00 +30°C° 0 mm 4 m/s 740 mmHg 45%
18:00 +28°C° 0 mm 3 m/s 740 mmHg 53%
19:00 +26°C° 0 mm 3 m/s 740 mmHg 60%
20:00 +24°C° 0 mm 2 m/s 740 mmHg 67%
21:00 +23°C° 0 mm 2 m/s 741 mmHg 69%
22:00 +21°C° 0 mm 2 m/s 741 mmHg 72%
23:00 +20°C° 0 mm 2 m/s 741 mmHg 74%

21 Julho, Terça-feira

Tempo Temperatura Precipitação Vento Pressão Humidade
00:00 +20°C° 0 mm 2 m/s 741 mmHg 75%
01:00 +19°C° 0 mm 2 m/s 741 mmHg 75%
02:00 +19°C° 0 mm 2 m/s 741 mmHg 75%
03:00 +19°C° 0 mm 2 m/s 741 mmHg 75%
04:00 +19°C° 0 mm 2 m/s 742 mmHg 74%
05:00 +18°C° 0 mm 2 m/s 742 mmHg 74%
06:00 +21°C° 0 mm 2 m/s 742 mmHg 67%
07:00 +24°C° 0 mm 2 m/s 742 mmHg 61%
08:00 +26°C° 0 mm 2 m/s 742 mmHg 54%
09:00 +28°C° 0 mm 2 m/s 742 mmHg 50%
10:00 +29°C° 0 mm 3 m/s 742 mmHg 46%
11:00 +31°C° 0 mm 3 m/s 742 mmHg 42%
12:00 +33°C° 0 mm 4 m/s 742 mmHg 40%
13:00 +33°C° 0 mm 4 m/s 741 mmHg 38%
14:00 +34°C° 0 mm 4 m/s 741 mmHg 36%
15:00 +34°C° 0 mm 4 m/s 741 mmHg 38%
16:00 +33°C° 0 mm 4 m/s 741 mmHg 40%
17:00 +33°C° 0 mm 4 m/s 741 mmHg 42%
18:00 +30°C° 0 mm 4 m/s 741 mmHg 50%
19:00 +28°C° 0 mm 3 m/s 741 mmHg 59%
20:00 +25°C° 0 mm 2 m/s 741 mmHg 67%
21:00 +25°C° 0 mm 2 m/s 741 mmHg 69%
22:00 +24°C° 0 mm 2 m/s 742 mmHg 72%
23:00 +24°C° 0 mm 2 m/s 742 mmHg 74%
Mostrar mais